Location: *
(42.0175°N, 9.4056°E)
Time: 18:01:55
(UTC+00:00)

OAO 3 Rocket - Pass Details

Date: 25 August 2019
Orbit: 630 x 682 km, 35.0° (Epoch: 15 September)

Event Time Altitude Azimuth Distance (km) Brightness Sun altitude
Rises 19:09:50 0° 263° (W) 3,010 7.6 -11.5°
Reaches altitude 10° 19:12:27 10° 253° (WSW) 2,088 6.5 -12.0°
Maximum altitude 19:16:42 30° 192° (SSW) 1,169 4.3 -12.7°
Enters shadow 19:19:32 17° 142° (SE) 1,633 4.7 -13.2°
